When you browse on this site, cookies collect data to enhance your experience and personalize the content and advertising you see.
Visit our Privacy Policy to learn more. By continuing to use the site, you agree to this use of cookies and data.
  • In Hungary
  • List of Countries
  • For 7 days
  • Water Temperature
  • Satellite Maps
  • Weather Map
  • News
  • Weather Widgets
  • user-avatar
    Login

    Hourly Weather Preili

    Today, 26 June, Wednesday

    Time Temperature Precipitation Wind Pressure Humidity
    00:00 +16°C° 0 mm 1 mps 757 mmHg 86%
    01:00 +16°C° 0 mm 1 mps 757 mmHg 86%
    02:00 +16°C° 0 mm 1 mps 757 mmHg 87%
    03:00 +18°C° 0 mm 1 mps 756 mmHg 86%
    04:00 +18°C° 0 mm 1 mps 756 mmHg 86%
    05:00 +17°C° 0 mm 0 mps 755 mmHg 86%
    06:00 +18°C° 0 mm 0 mps 755 mmHg 84%
    07:00 +19°C° 0 mm 0 mps 755 mmHg 81%
    08:00 +22°C° 0 mm 1 mps 755 mmHg 80%
    09:00 +24°C° 0.3 mm 1 mps 754 mmHg 76%
    10:00 +25°C° 0.3 mm 2 mps 754 mmHg 71%
    11:00 +27°C° 0.3 mm 2 mps 753 mmHg 66%
    12:00 +27°C° 0.1 mm 2 mps 753 mmHg 60%
    13:00 +28°C° 0.1 mm 3 mps 753 mmHg 54%
    14:00 +29°C° 0.1 mm 4 mps 752 mmHg 48%
    15:00 +29°C° 0 mm 3 mps 752 mmHg 50%
    16:00 +28°C° 0 mm 2 mps 751 mmHg 53%
    17:00 +28°C° 0 mm 2 mps 750 mmHg 55%
    18:00 +27°C° 0 mm 1 mps 750 mmHg 63%
    19:00 +25°C° 0 mm 1 mps 749 mmHg 70%
    20:00 +23°C° 0 mm 1 mps 749 mmHg 77%
    21:00 +22°C° 0.1 mm 1 mps 748 mmHg 82%
    22:00 +21°C° 0.1 mm 1 mps 747 mmHg 87%
    23:00 +20°C° 0.1 mm 1 mps 746 mmHg 92%

    Tomorrow, 27 June, Thursday

    Time Temperature Precipitation Wind Pressure Humidity
    00:00 +20°C° 0.4 mm 1 mps 746 mmHg 93%
    01:00 +20°C° 0.4 mm 1 mps 745 mmHg 95%
    02:00 +18°C° 0.4 mm 2 mps 744 mmHg 97%
    03:00 +20°C° 0.8 mm 1 mps 743 mmHg 97%
    04:00 +20°C° 0.8 mm 1 mps 742 mmHg 97%
    05:00 +18°C° 0.8 mm 0 mps 741 mmHg 98%
    06:00 +20°C° 1.1 mm 2 mps 741 mmHg 95%
    07:00 +20°C° 1.1 mm 3 mps 741 mmHg 93%
    08:00 +21°C° 1.1 mm 4 mps 741 mmHg 91%
    09:00 +20°C° 0.4 mm 5 mps 741 mmHg 89%
    10:00 +19°C° 0.4 mm 5 mps 741 mmHg 87%
    11:00 +19°C° 0.4 mm 5 mps 741 mmHg 85%
    12:00 +19°C° 0.1 mm 6 mps 741 mmHg 79%
    13:00 +19°C° 0.1 mm 6 mps 742 mmHg 74%
    14:00 +18°C° 0.1 mm 7 mps 742 mmHg 68%
    15:00 +19°C° 0.1 mm 6 mps 742 mmHg 71%
    16:00 +19°C° 0.1 mm 6 mps 742 mmHg 73%
    17:00 +17°C° 0.1 mm 6 mps 742 mmHg 75%
    18:00 +17°C° 0.3 mm 5 mps 743 mmHg 76%
    19:00 +16°C° 0.3 mm 5 mps 743 mmHg 77%
    20:00 +15°C° 0.3 mm 5 mps 743 mmHg 78%
    21:00 +14°C° 0 mm 5 mps 743 mmHg 79%
    22:00 +13°C° 0 mm 5 mps 743 mmHg 80%
    23:00 +12°C° 0 mm 5 mps 743 mmHg 81%

    Day after tomorrow, 28 June, Friday

    Time Temperature Precipitation Wind Pressure Humidity
    00:00 +12°C° 0 mm 5 mps 743 mmHg 80%
    01:00 +12°C° 0 mm 5 mps 743 mmHg 80%
    02:00 +12°C° 0 mm 5 mps 743 mmHg 79%
    03:00 +12°C° 0 mm 5 mps 743 mmHg 79%
    04:00 +12°C° 0 mm 5 mps 744 mmHg 79%
    05:00 +12°C° 0 mm 5 mps 744 mmHg 78%
    06:00 +13°C° 0 mm 6 mps 744 mmHg 73%
    07:00 +14°C° 0 mm 7 mps 744 mmHg 67%
    08:00 +15°C° 0 mm 7 mps 744 mmHg 62%
    09:00 +16°C° 0 mm 7 mps 744 mmHg 61%
    10:00 +16°C° 0 mm 7 mps 744 mmHg 60%
    11:00 +17°C° 0 mm 7 mps 744 mmHg 58%
    12:00 +17°C° 0 mm 7 mps 745 mmHg 53%
    13:00 +18°C° 0 mm 7 mps 745 mmHg 47%
    14:00 +20°C° 0 mm 7 mps 745 mmHg 42%
    15:00 +20°C° 0 mm 7 mps 745 mmHg 42%
    16:00 +18°C° 0 mm 7 mps 745 mmHg 42%
    17:00 +19°C° 0 mm 6 mps 745 mmHg 43%
    18:00 +17°C° 0 mm 6 mps 746 mmHg 47%
    19:00 +15°C° 0 mm 5 mps 746 mmHg 51%
    20:00 +14°C° 0 mm 4 mps 746 mmHg 55%
    21:00 +13°C° 0 mm 4 mps 746 mmHg 58%
    22:00 +11°C° 0 mm 4 mps 747 mmHg 61%
    23:00 +10°C° 0 mm 4 mps 747 mmHg 64%

    29 June, Saturday

    Time Temperature Precipitation Wind Pressure Humidity
    00:00 +10°C° 0 mm 4 mps 747 mmHg 66%
    01:00 +10°C° 0 mm 4 mps 747 mmHg 68%
    02:00 +8°C° 0 mm 4 mps 747 mmHg 70%
    03:00 +8°C° 0 mm 4 mps 747 mmHg 72%
    04:00 +9°C° 0 mm 3 mps 747 mmHg 75%
    05:00 +9°C° 0 mm 3 mps 747 mmHg 77%
    06:00 +10°C° 0 mm 4 mps 747 mmHg 71%
    07:00 +12°C° 0 mm 4 mps 747 mmHg 65%
    08:00 +14°C° 0 mm 4 mps 747 mmHg 59%
    09:00 +15°C° 0 mm 5 mps 747 mmHg 54%
    10:00 +17°C° 0 mm 5 mps 747 mmHg 49%
    11:00 +19°C° 0 mm 5 mps 747 mmHg 44%
    12:00 +19°C° 0 mm 5 mps 747 mmHg 49%
    13:00 +19°C° 0 mm 5 mps 747 mmHg 53%
    14:00 +20°C° 0 mm 5 mps 747 mmHg 57%
    15:00 +19°C° 0.3 mm 5 mps 747 mmHg 63%
    16:00 +19°C° 0.3 mm 5 mps 747 mmHg 68%
    17:00 +19°C° 0.3 mm 4 mps 747 mmHg 73%
    18:00 +18°C° 0.1 mm 4 mps 747 mmHg 73%
    19:00 +17°C° 0.1 mm 3 mps 747 mmHg 78%
    20:00 +16°C° 0.1 mm 3 mps 748 mmHg 83%
    21:00 +14°C° 0 mm 3 mps 748 mmHg 86%
    22:00 +13°C° 0 mm 3 mps 748 mmHg 88%
    23:00 +12°C° 0 mm 3 mps 748 mmHg 91%

    30 June, Sunday

    Time Temperature Precipitation Wind Pressure Humidity
    00:00 +12°C° 0 mm 3 mps 748 mmHg 92%
    01:00 +11°C° 0 mm 3 mps 748 mmHg 94%
    02:00 +12°C° 0 mm 2 mps 749 mmHg 96%
    03:00 +12°C° 0 mm 2 mps 749 mmHg 96%
    04:00 +12°C° 0 mm 2 mps 749 mmHg 96%
    05:00 +12°C° 0 mm 2 mps 749 mmHg 96%
    06:00 +14°C° 0 mm 2 mps 749 mmHg 88%
    07:00 +16°C° 0 mm 2 mps 749 mmHg 80%
    08:00 +18°C° 0 mm 2 mps 749 mmHg 72%
    09:00 +20°C° 0 mm 3 mps 749 mmHg 65%
    10:00 +21°C° 0 mm 3 mps 749 mmHg 58%
    11:00 +24°C° 0 mm 3 mps 749 mmHg 51%
    12:00 +25°C° 0 mm 3 mps 749 mmHg 49%
    13:00 +26°C° 0 mm 3 mps 749 mmHg 48%
    14:00 +27°C° 0 mm 3 mps 748 mmHg 46%
    15:00 +27°C° 0 mm 4 mps 748 mmHg 50%
    16:00 +27°C° 0 mm 4 mps 748 mmHg 54%
    17:00 +26°C° 0 mm 4 mps 747 mmHg 58%
    18:00 +25°C° 0 mm 4 mps 747 mmHg 66%
    19:00 +24°C° 0 mm 3 mps 747 mmHg 73%
    20:00 +22°C° 0 mm 3 mps 746 mmHg 81%
    21:00 +21°C° 0 mm 3 mps 746 mmHg 85%
    22:00 +20°C° 0 mm 3 mps 746 mmHg 89%
    23:00 +19°C° 0 mm 3 mps 746 mmHg 93%

    1 July, Monday

    Time Temperature Precipitation Wind Pressure Humidity
    00:00 +19°C° 0 mm 3 mps 745 mmHg 92%
    01:00 +19°C° 0 mm 4 mps 745 mmHg 91%
    02:00 +19°C° 0 mm 4 mps 744 mmHg 90%
    03:00 +19°C° 0 mm 4 mps 744 mmHg 88%
    04:00 +19°C° 0 mm 4 mps 744 mmHg 86%
    05:00 +19°C° 0 mm 4 mps 743 mmHg 85%
    06:00 +20°C° 0 mm 4 mps 743 mmHg 82%
    07:00 +20°C° 0 mm 4 mps 743 mmHg 80%
    08:00 +21°C° 0 mm 4 mps 743 mmHg 78%
    09:00 +23°C° 0 mm 5 mps 743 mmHg 69%
    10:00 +25°C° 0 mm 5 mps 743 mmHg 60%
    11:00 +26°C° 0 mm 6 mps 743 mmHg 51%
    12:00 +26°C° 0 mm 6 mps 743 mmHg 51%
    13:00 +26°C° 0 mm 6 mps 743 mmHg 51%
    14:00 +26°C° 0 mm 6 mps 743 mmHg 51%
    15:00 +26°C° 0 mm 6 mps 743 mmHg 53%
    16:00 +25°C° 0 mm 5 mps 743 mmHg 55%
    17:00 +25°C° 0 mm 5 mps 743 mmHg 57%
    18:00 +22°C° 0 mm 5 mps 743 mmHg 63%
    19:00 +20°C° 0 mm 4 mps 743 mmHg 68%
    20:00 +19°C° 0 mm 3 mps 743 mmHg 74%
    21:00 +17°C° 0 mm 3 mps 743 mmHg 78%
    22:00 +16°C° 0 mm 3 mps 743 mmHg 83%
    23:00 +14°C° 0 mm 3 mps 744 mmHg 87%
    Show more